Location: Walton
(43.6794°N, 81.3017°W)
Time: 21:47:58
(UTC+00:00)

CZ-3 R/B - Pass Details

Date: 09 December 2025
Orbit: 552 x 10004 km, 28.3° (Epoch: 20 January)

Event Time Altitude Azimuth Distance (km) Brightness Sun altitude
Rises 08:10:57 0° 268° (W) 14,398 7.1 -48.8°
Enters shadow 08:14:39 - 268° (W) 13,938 7.0 -48.2°
Exits shadow 09:03:49 44° 217° (SW) 4,408 4.4 -39.5°
Maximum altitude 09:05:19 44° 207° (SSW) 4,123 4.3 -39.2°
Drops below altitude 10° 09:16:15 10° 138° (SE) 3,966 5.0 -37.2°
Sets 09:18:32 0° 131° (SE) 4,461 5.5 -36.8°
